Emporia, VA

8:43 AM EST on December 06, 2019 (GMT -0500)
Emporia-Greensville Regional

Weather History for KEMV - October, 2019

Change the Weather History Date:

Sunday, October 6, 2019

  Actual Average Record
Temperature  
Mean Temperature 69 °F -  
Max Temperature 79 °F 77 °F 87 °F (1986)
Min Temperature 59 °F 48 °F 34 °F (1987)
Cooling Degree Days 4    
Growing Degree Days 19 (Base 50)    
Moisture  
Dew Point 60 °F    
Average Humidity 75    
Maximum Humidity 91    
Minimum Humidity 53    
Precipitation  
Precipitation 0.00 in - - ()
Sea Level Pressure  
Sea Level Pressure 30.28 in    
Wind  
Wind Speed 2 mph (ESE)    
Max Wind Speed 15 mph    
Max Gust Speed 22 mph    
Visibility 10 miles    
Events      
Averages and records for this station are not official NWS values.
T = Trace of Precipitation, MM = Missing Value Source: NWS Daily Summary

Daily Weather History Graph

Daily Weather History Graph

Search for Another Location

Airport or City:

Astronomy

Oct. 06, 2019 Rise Set
Actual Time 7:09 AM EDT 6:46 PM EDT
Civil Twilight 6:43 AM EDT 7:12 PM EDT
Nautical Twilight 6:13 AM EDT 7:42 PM EDT
Astronomical Twilight 5:43 AM EDT 8:12 PM EDT
Moon 3:12 PM EDT 12:17 AM EDT
Length of Visible Light 12h 28m
Length of Day
11h 37m
First Quarter, 59% of the Moon is Illuminated
Oct 6
First Quarter
Oct 13
Full
Oct 21
Last Quarter
Oct 27
New
Nov 4
First Quarter

Hourly Weather History & Observations

Time (EDT) Temp. Dew Point Humidity Pressure Visibility Wind Dir Wind Speed Gust Speed Precip Events Conditions
12:15 AM 63.0 °F 55.8 °F 77% 30.30 in 10.0 mi Calm Calm - N/A   Overcast
12:35 AM 62.6 °F 55.9 °F 79% 30.30 in 10.0 mi Calm Calm - N/A   Overcast
12:55 AM 62.6 °F 56.3 °F 80% 30.29 in 10.0 mi Calm Calm - N/A   Overcast
1:15 AM 62.2 °F 56.3 °F 81% 30.29 in - Calm Calm - N/A   Overcast
1:35 AM 62.1 °F 56.3 °F 81% 30.29 in 10.0 mi ENE 3.5 mph - N/A   Overcast
1:55 AM 62.1 °F 56.3 °F 81% 30.29 in 10.0 mi Calm Calm - N/A   Overcast
2:15 AM 62.2 °F 56.5 °F 81% 30.29 in 10.0 mi Calm Calm - N/A   Overcast
2:35 AM 62.2 °F 56.5 °F 81% 30.29 in 10.0 mi Calm Calm - N/A   Overcast
2:55 AM 62.6 °F 56.5 °F 80% 30.28 in 10.0 mi ENE 3.5 mph - N/A   Overcast
3:15 AM 62.2 °F 56.5 °F 81% 30.27 in - Calm Calm - N/A   Overcast
3:35 AM 62.6 °F 56.8 °F 81% 30.27 in 10.0 mi Calm Calm - N/A   Overcast
3:55 AM 62.1 °F 56.7 °F 82% 30.27 in 10.0 mi Calm Calm - N/A   Overcast
4:15 AM 62.6 °F 56.8 °F 81% 30.26 in 10.0 mi Calm Calm - N/A   Overcast
4:35 AM 62.4 °F 57.2 °F 83% 30.25 in 10.0 mi Calm Calm - N/A   Overcast
5:15 AM 59.5 °F 56.8 °F 91% 30.27 in 10.0 mi Calm Calm - N/A   Mostly Cloudy
5:35 AM 61.0 °F 58.1 °F 90% 30.27 in 10.0 mi Calm Calm - N/A   Overcast
5:55 AM 61.2 °F 57.7 °F 88% 30.27 in 10.0 mi Calm Calm - N/A   Overcast
6:15 AM 61.2 °F 58.1 °F 90% 30.28 in 10.0 mi ENE 4.6 mph - N/A   Overcast
6:35 AM 61.3 °F 58.1 °F 89% 30.28 in 10.0 mi ENE 3.5 mph - N/A   Overcast
6:55 AM 61.7 °F 58.1 °F 88% 30.28 in 10.0 mi Calm Calm - N/A   Overcast
7:15 AM 61.7 °F 58.1 °F 88% 30.29 in 10.0 mi Calm Calm - N/A   Overcast
7:35 AM 62.1 °F 58.1 °F 87% 30.29 in 10.0 mi Calm Calm - N/A   Overcast
7:55 AM 61.9 °F 58.3 °F 88% 30.30 in 10.0 mi Calm Calm - N/A   Overcast
8:15 AM 62.2 °F 58.3 °F 87% 30.30 in 10.0 mi Calm Calm - N/A   Overcast
8:35 AM 62.8 °F 58.8 °F 87% 30.30 in - Calm Calm - N/A   Overcast
8:55 AM 63.1 °F 59.0 °F 86% 30.31 in 10.0 mi Calm Calm - N/A   Overcast
9:15 AM 63.7 °F 59.2 °F 85% 30.31 in 10.0 mi Calm Calm - N/A   Overcast
9:35 AM 64.9 °F 59.4 °F 82% 30.31 in 10.0 mi ENE 3.5 mph - N/A   Overcast
9:55 AM 66.2 °F 60.3 °F 81% 30.31 in 10.0 mi ENE 4.6 mph - N/A   Overcast
10:15 AM 67.3 °F 60.8 °F 80% 30.31 in 10.0 mi ESE 5.8 mph - N/A   Overcast
10:35 AM 69.1 °F 61.2 °F 76% 30.31 in 10.0 mi ESE 5.8 mph - N/A   Overcast
10:55 AM 70.0 °F 61.3 °F 74% 30.31 in - ESE 8.1 mph - N/A   Overcast
11:15 AM 71.6 °F 61.2 °F 70% 30.32 in 10.0 mi ESE 5.8 mph - N/A   Overcast
11:35 AM 73.2 °F 61.5 °F 67% 30.31 in 10.0 mi ESE 4.6 mph - N/A   Overcast
11:55 AM 74.7 °F 60.1 °F 60% 30.31 in 10.0 mi SE 5.8 mph - N/A   Overcast
12:15 PM 75.7 °F 60.3 °F 59% 30.31 in 10.0 mi ESE 3.5 mph - N/A   Overcast
12:35 PM 76.6 °F 60.1 °F 56% 30.31 in 10.0 mi ESE 8.1 mph - N/A   Overcast
12:55 PM 77.9 °F 59.7 °F 53% 30.30 in 10.0 mi ESE 15.0 mph - N/A   Mostly Cloudy
1:15 PM 79.0 °F 60.3 °F 53% 30.29 in 10.0 mi ESE 10.4 mph 16.1 mph N/A   Mostly Cloudy
1:35 PM 78.4 °F 60.8 °F 55% 30.29 in 10.0 mi SSE 11.5 mph 21.9 mph N/A   Overcast
1:55 PM 79.2 °F 61.2 °F 54% 30.28 in - SSE 8.1 mph - N/A   Overcast
2:15 PM 78.1 °F 60.8 °F 55% 30.28 in 10.0 mi SE 5.8 mph 17.3 mph N/A   Overcast
2:55 PM 77.0 °F 60.4 °F 56% 30.27 in 10.0 mi SSE 5.8 mph - N/A   Overcast
3:15 PM 77.0 °F 60.3 °F 56% 30.27 in 10.0 mi SE 4.6 mph - N/A   Overcast
3:35 PM 77.0 °F 61.0 °F 58% 30.26 in 10.0 mi SE 4.6 mph - N/A   Overcast
3:55 PM 77.0 °F 61.0 °F 58% 30.26 in 10.0 mi SE 3.5 mph - N/A   Overcast
4:15 PM 77.2 °F 61.5 °F 58% 30.26 in 10.0 mi SSE 4.6 mph - N/A   Overcast
4:35 PM 77.0 °F 61.3 °F 58% 30.25 in 10.0 mi SE 5.8 mph - N/A   Overcast
4:55 PM 77.0 °F 61.5 °F 59% 30.25 in 10.0 mi SE 5.8 mph - N/A   Overcast
5:35 PM 77.0 °F 61.5 °F 59% 30.25 in 10.0 mi SE 3.5 mph - N/A   Overcast
5:55 PM 76.3 °F 61.5 °F 60% 30.25 in 10.0 mi Calm Calm - N/A   Overcast
6:15 PM 75.7 °F 62.1 °F 62% 30.25 in - ESE 3.5 mph - N/A   Overcast
6:35 PM 74.3 °F 63.1 °F 68% 30.25 in 10.0 mi Calm Calm - N/A   Scattered Clouds
6:55 PM 73.0 °F 63.3 °F 71% 30.25 in 10.0 mi Calm Calm - N/A   Mostly Cloudy
7:15 PM 72.1 °F 63.0 °F 73% 30.25 in 10.0 mi Calm Calm - N/A   Overcast
7:35 PM 72.1 °F 63.0 °F 73% 30.25 in 10.0 mi Calm Calm - N/A   Overcast
7:55 PM 71.4 °F 62.8 °F 74% 30.25 in 10.0 mi Calm Calm - N/A   Overcast
8:15 PM 70.0 °F 63.5 °F 80% 30.26 in 10.0 mi ESE 3.5 mph - N/A   Overcast
8:35 PM 69.1 °F 62.2 °F 79% 30.26 in 10.0 mi ESE 5.8 mph - N/A   Mostly Cloudy
8:55 PM 68.0 °F 61.3 °F 79% 30.27 in 10.0 mi ESE 3.5 mph - N/A   Scattered Clouds
9:15 PM 67.5 °F 61.2 °F 80% 30.27 in 10.0 mi ESE 4.6 mph - N/A   Mostly Cloudy
9:35 PM 66.9 °F 60.8 °F 81% 30.27 in - ESE 5.8 mph - N/A   Overcast
9:55 PM 67.3 °F 60.6 °F 79% 30.28 in 10.0 mi ESE 4.6 mph - N/A   Overcast
10:15 PM 68.2 °F 60.1 °F 75% 30.28 in 10.0 mi SE 4.6 mph - N/A   Overcast
10:35 PM 68.0 °F 59.9 °F 75% 30.27 in 10.0 mi ESE 3.5 mph - N/A   Mostly Cloudy
10:55 PM 67.6 °F 59.4 °F 75% 30.27 in 10.0 mi ESE 3.5 mph - N/A   Scattered Clouds
11:15 PM 66.6 °F 59.2 °F 77% 30.27 in 10.0 mi Calm Calm - N/A   Clear
11:35 PM 64.2 °F 58.8 °F 83% 30.27 in 10.0 mi Calm Calm - N/A   Clear
11:55 PM 61.7 °F 59.0 °F 91% 30.26 in 10.0 mi Calm Calm - N/A   Clear